Cairo, IL

5:22 PM CDT on April 23, 2017 (GMT -0500)
Cairo Regional

Weather History for KCIR - January, 2012

Change the Weather History Date:

Sunday, January 1, 2012

  Actual Average Record
Temperature  
Mean Temperature 52 °F -  
Max Temperature 59 °F 40 °F 68 °F (1952)
Min Temperature 42 °F 25 °F 3 °F (1968)
Degree Days  
Heating Degree Days 14    
Growing Degree Days 2 (Base 50)    
Moisture  
Dew Point 31 °F    
Average Humidity 50    
Maximum Humidity 82    
Minimum Humidity 28    
Precipitation  
Precipitation 0.00 in - - ()
Sea Level Pressure  
Sea Level Pressure 30.12 in    
Wind  
Wind Speed 15 mph (West)    
Max Wind Speed 28 mph    
Max Gust Speed 33 mph    
Visibility 10 miles    
Events      
Averages and records for this station are not official NWS values.
T = Trace of Precipitation, MM = Missing Value Source: NWS Daily Summary

Daily Weather History Graph

Daily Weather History Graph

Search for Another Location

Airport or City:

Trip Planner

Search our weather history database for the weather conditions in past years. The results will help you decide how hot, cold, wet, or windy it might be!

Date:

Astronomy

Jan. 01, 2012 Rise Set
Actual Time 7:10 AM CST 4:50 PM CST
Civil Twilight 6:41 AM CST 5:19 PM CST
Nautical Twilight 6:08 AM CST 5:51 PM CST
Astronomical Twilight 5:37 AM CST 6:23 PM CST
Moon 11:34 AM CST (1/1) 12:10 AM CST (1/1)
Length of Visible Light 10h 38m
Length of Day
9h 40m
First Quarter, 55% of the Moon is Illuminated
Jan 1
First Quarter
Jan 9
Full
Jan 16
Last Quarter
Jan 23
New
Jan 30
First Quarter

Hourly Weather History & Observations

Time (CST) Temp. Windchill Dew Point Humidity Pressure Visibility Wind Dir Wind Speed Gust Speed Precip Events Conditions
12:15 AM 57.2 °F - 41.0 °F 55% 29.83 in 10.0 mi South 12.7 mph 18.4 mph N/A   Mostly Cloudy
12:35 AM 57.2 °F - 42.8 °F 59% 29.82 in 10.0 mi South 15.0 mph 21.9 mph N/A   Scattered Clouds
12:55 AM 57.2 °F - 42.8 °F 59% 29.82 in 10.0 mi South 16.1 mph 23.0 mph N/A   Clear
1:15 AM 57.2 °F - 44.6 °F 63% 29.81 in 10.0 mi South 13.8 mph 24.2 mph N/A   Clear
1:35 AM 57.2 °F - 48.2 °F 72% 29.81 in 10.0 mi SSW 15.0 mph 21.9 mph N/A   Clear
1:55 AM 59.0 °F - 50.0 °F 72% 29.82 in 10.0 mi SSW 16.1 mph 26.5 mph N/A   Clear
2:15 AM 59.0 °F - 51.8 °F 77% 29.83 in 10.0 mi SW 17.3 mph 25.3 mph N/A   Clear
2:35 AM 57.2 °F - 51.8 °F 82% 29.82 in 10.0 mi SSW 17.3 mph 26.5 mph N/A   Mostly Cloudy
2:55 AM 57.2 °F - 50.0 °F 77% 29.84 in 10.0 mi SW 15.0 mph 24.2 mph N/A   Scattered Clouds
3:15 AM 55.4 °F - 50.0 °F 82% 29.85 in 10.0 mi SW 16.1 mph 26.5 mph N/A   Clear
3:35 AM 55.4 °F - 48.2 °F 77% 29.85 in 10.0 mi SW 16.1 mph 21.9 mph N/A   Clear
3:55 AM 55.4 °F - 44.6 °F 67% 29.86 in 10.0 mi WSW 13.8 mph 23.0 mph N/A   Clear
4:15 AM 53.6 °F - 44.6 °F 72% 29.86 in 10.0 mi WSW 11.5 mph - N/A   Clear
4:35 AM 53.6 °F - 42.8 °F 67% 29.88 in 10.0 mi WSW 10.4 mph - N/A   Clear
4:55 AM 51.8 °F - 42.8 °F 71% 29.90 in 10.0 mi WSW 12.7 mph 18.4 mph N/A   Clear
5:15 AM 51.8 °F - 41.0 °F 67% 29.92 in 10.0 mi WSW 15.0 mph - N/A   Clear
5:35 AM 51.8 °F - 37.4 °F 58% 29.94 in 10.0 mi WSW 15.0 mph 18.4 mph N/A   Clear
5:55 AM 50.0 °F - 33.8 °F 54% 29.96 in 10.0 mi West 13.8 mph 18.4 mph N/A   Clear
6:15 AM 50.0 °F - 33.8 °F 54% 29.98 in 10.0 mi West 13.8 mph 18.4 mph N/A   Clear
6:35 AM 50.0 °F - 35.6 °F 58% 30.02 in 10.0 mi WNW 23.0 mph 29.9 mph N/A   Mostly Cloudy
6:55 AM 48.2 °F - 33.8 °F 58% 30.05 in 10.0 mi WNW 19.6 mph 31.1 mph N/A   Scattered Clouds
7:15 AM 48.2 °F - 33.8 °F 58% 30.08 in 10.0 mi WNW 19.6 mph 26.5 mph N/A   Mostly Cloudy
7:35 AM 46.4 °F 41.1 °F 33.8 °F 62% 30.10 in 10.0 mi WNW 11.5 mph 24.2 mph N/A   Overcast
7:55 AM 46.4 °F 41.1 °F 33.8 °F 62% 30.11 in 10.0 mi WNW 11.5 mph 20.7 mph N/A   Mostly Cloudy
8:15 AM 46.4 °F 40.7 °F 33.8 °F 62% 30.13 in 10.0 mi West 12.7 mph - N/A   Overcast
8:35 AM 48.2 °F - 33.8 °F 58% 30.15 in 10.0 mi West 19.6 mph 24.2 mph N/A   Overcast
8:55 AM 48.2 °F - 33.8 °F 58% 30.18 in 10.0 mi West 13.8 mph 20.7 mph N/A   Overcast
9:15 AM 48.2 °F - 33.8 °F 58% 30.18 in 10.0 mi WNW 13.8 mph 26.5 mph N/A   Mostly Cloudy
9:55 AM 50.0 °F - 33.8 °F 54% 30.21 in 10.0 mi West 13.8 mph 23.0 mph N/A   Clear
10:15 AM 50.0 °F - 33.8 °F 54% 30.21 in 10.0 mi West 20.7 mph 25.3 mph N/A   Clear
10:35 AM 50.0 °F - 32.0 °F 50% 30.21 in 10.0 mi West 15.0 mph 27.6 mph N/A   Clear
10:55 AM 50.0 °F - 32.0 °F 50% 30.21 in 10.0 mi WNW 15.0 mph 20.7 mph N/A   Clear
11:15 AM 51.8 °F - 32.0 °F 47% 30.21 in 10.0 mi WNW 13.8 mph 24.2 mph N/A   Clear
11:35 AM 51.8 °F - 32.0 °F 47% 30.22 in 10.0 mi West 13.8 mph 23.0 mph N/A   Clear
11:55 AM 51.8 °F - 30.2 °F 44% 30.21 in 10.0 mi WNW 16.1 mph 23.0 mph N/A   Clear
12:15 PM 51.8 °F - 28.4 °F 41% 30.21 in 10.0 mi WNW 16.1 mph 23.0 mph N/A   Clear
12:35 PM 53.6 °F - 28.4 °F 38% 30.22 in 10.0 mi WNW 13.8 mph 18.4 mph N/A   Clear
12:55 PM 53.6 °F - 26.6 °F 35% 30.22 in 10.0 mi WNW 16.1 mph 24.2 mph N/A   Clear
1:35 PM 53.6 °F - 24.8 °F 33% 30.23 in 10.0 mi West 13.8 mph 20.7 mph N/A   Clear
1:55 PM 53.6 °F - 23.0 °F 30% 30.24 in 10.0 mi WNW 17.3 mph 26.5 mph N/A   Clear
2:15 PM 53.6 °F - 23.0 °F 30% 30.24 in 10.0 mi WNW 19.6 mph 23.0 mph N/A   Clear
2:35 PM 53.6 °F - 23.0 °F 30% 30.25 in 10.0 mi WNW 16.1 mph 23.0 mph N/A   Clear
2:55 PM 53.6 °F - 21.2 °F 28% 30.26 in 10.0 mi NW 12.7 mph 23.0 mph N/A   Clear
3:15 PM 51.8 °F - 21.2 °F 30% 30.27 in 10.0 mi NW 15.0 mph 23.0 mph N/A   Clear
3:35 PM 51.8 °F - 19.4 °F 28% 30.28 in 10.0 mi WNW 19.6 mph 25.3 mph N/A   Clear
3:55 PM 51.8 °F - 19.4 °F 28% 30.28 in 10.0 mi WNW 13.8 mph - N/A   Clear
4:15 PM 50.0 °F - 19.4 °F 30% 30.29 in 10.0 mi West 13.8 mph 18.4 mph N/A   Clear
4:35 PM 48.2 °F - 19.4 °F 32% 30.30 in 10.0 mi WNW 11.5 mph 18.4 mph N/A   Clear
4:55 PM 48.2 °F - 19.4 °F 32% 30.30 in 10.0 mi WNW 9.2 mph 17.3 mph N/A   Clear
5:15 PM 46.4 °F 42.4 °F 21.2 °F 37% 30.31 in 10.0 mi WNW 8.1 mph - N/A   Clear
5:55 PM 46.4 °F 40.1 °F 21.2 °F 37% 30.33 in 10.0 mi WNW 15.0 mph 23.0 mph N/A   Clear
6:15 PM 46.4 °F 39.5 °F 17.6 °F 32% 30.34 in 10.0 mi WNW 17.3 mph 27.6 mph N/A   Clear
6:35 PM 46.4 °F 39.0 °F 15.8 °F 29% 30.35 in 10.0 mi WNW 19.6 mph 27.6 mph N/A   Clear
6:55 PM 46.4 °F 37.5 °F 15.8 °F 29% 30.36 in 10.0 mi WNW 27.6 mph 33.4 mph N/A   Clear
7:15 PM 44.6 °F 36.6 °F 14.0 °F 29% 30.36 in 10.0 mi WNW 19.6 mph 27.6 mph N/A   Clear
7:35 PM 44.6 °F 36.4 °F 14.0 °F 29% 30.37 in 10.0 mi NW 20.7 mph 27.6 mph N/A   Clear
7:55 PM 44.6 °F 37.4 °F 14.0 °F 29% 30.37 in 10.0 mi NW 16.1 mph 28.8 mph N/A   Clear
8:15 PM 44.6 °F 37.8 °F 14.0 °F 29% 30.37 in 10.0 mi WNW 15.0 mph 23.0 mph N/A   Clear
8:35 PM 42.8 °F 36.6 °F 14.0 °F 31% 30.37 in 10.0 mi WNW 11.5 mph - N/A   Clear
8:55 PM 42.8 °F 37.5 °F 14.0 °F 31% 30.37 in 10.0 mi WNW 9.2 mph - N/A   Clear
9:15 PM 41.0 °F 35.8 °F 15.8 °F 36% 30.37 in 10.0 mi West 8.1 mph - N/A   Clear
9:35 PM 39.2 °F 35.0 °F 15.8 °F 39% 30.37 in 10.0 mi West 5.8 mph - N/A   Clear
9:55 PM 39.2 °F 34.2 °F 17.6 °F 42% 30.36 in 10.0 mi West 6.9 mph - N/A   Clear
10:15 PM 41.0 °F 35.8 °F 19.4 °F 42% 30.36 in 10.0 mi West 8.1 mph - N/A   Clear
10:55 PM 37.4 °F 32.8 °F 17.6 °F 45% 30.36 in 10.0 mi West 5.8 mph - N/A   Clear
11:15 PM 39.2 °F 33.0 °F 17.6 °F 42% 30.36 in 10.0 mi WNW 9.2 mph 19.6 mph N/A   Clear
11:35 PM 39.2 °F 32.5 °F 17.6 °F 42% 30.36 in 10.0 mi WNW 10.4 mph 17.3 mph N/A   Clear
11:55 PM 39.2 °F 31.6 °F 17.6 °F 42% 30.36 in 10.0 mi WNW 12.7 mph 19.6 mph N/A   Clear